Year,Month,Day,Hour,Minute,Value (Times are PST for temperature in C)
2009,06,04,00,00,18.50
2009,06,04,00,01,18.40
2009,06,04,00,02,18.30
2009,06,04,00,03,18.20
2009,06,04,00,04,18.20
2009,06,04,00,05,18.10
2009,06,04,00,06,18.10
2009,06,04,00,07,18.10
2009,06,04,00,08,18.00
2009,06,04,00,09,17.90
2009,06,04,00,10,17.90
2009,06,04,00,11,17.90
2009,06,04,00,12,17.80
2009,06,04,00,13,17.70
2009,06,04,00,14,17.70
2009,06,04,00,15,17.60
2009,06,04,00,16,17.60
2009,06,04,00,17,17.50
2009,06,04,00,18,17.50
2009,06,04,00,19,17.40
2009,06,04,00,20,17.40
2009,06,04,00,21,17.40
2009,06,04,00,22,17.30
2009,06,04,00,23,17.30
2009,06,04,00,24,17.30
2009,06,04,00,25,17.30
2009,06,04,00,26,17.30
2009,06,04,00,27,17.30
2009,06,04,00,28,17.30
2009,06,04,00,29,17.30
2009,06,04,00,30,17.30
2009,06,04,00,31,17.30
2009,06,04,00,32,17.30
2009,06,04,00,33,17.30
2009,06,04,00,34,17.30
2009,06,04,00,35,17.30
2009,06,04,00,36,17.30
2009,06,04,00,37,17.30
2009,06,04,00,38,17.30
2009,06,04,00,39,17.30
2009,06,04,00,40,17.30
2009,06,04,00,41,17.40
2009,06,04,00,42,17.40
2009,06,04,00,43,17.40
2009,06,04,00,44,17.40
2009,06,04,00,45,17.40
2009,06,04,00,46,17.40
2009,06,04,00,47,17.40
2009,06,04,00,48,17.40
2009,06,04,00,49,17.40
2009,06,04,00,50,17.40
2009,06,04,00,51,17.40
2009,06,04,00,52,17.40
2009,06,04,00,53,17.40
2009,06,04,00,54,17.30
2009,06,04,00,55,17.30
2009,06,04,00,56,17.30
2009,06,04,00,57,17.30
2009,06,04,00,58,17.20
2009,06,04,00,59,17.20
2009,06,04,01,00,17.10
2009,06,04,01,01,17.10
2009,06,04,01,02,17.00
2009,06,04,01,03,17.00
2009,06,04,01,04,17.00
2009,06,04,01,05,16.90
2009,06,04,01,06,16.90
2009,06,04,01,07,16.90
2009,06,04,01,08,16.80
2009,06,04,01,09,16.80
2009,06,04,01,10,16.80
2009,06,04,01,11,16.70
2009,06,04,01,12,16.70
2009,06,04,01,13,16.70
2009,06,04,01,14,16.70
2009,06,04,01,15,16.70
2009,06,04,01,16,16.70
2009,06,04,01,17,16.70
2009,06,04,01,18,16.70
2009,06,04,01,19,16.70
2009,06,04,01,20,16.70
2009,06,04,01,21,16.60
2009,06,04,01,22,16.60
2009,06,04,01,23,16.60
2009,06,04,01,24,16.50
2009,06,04,01,25,16.40
2009,06,04,01,26,16.40
2009,06,04,01,27,16.40
2009,06,04,01,28,16.30
2009,06,04,01,29,16.30
2009,06,04,01,30,16.20
2009,06,04,01,31,16.20
2009,06,04,01,32,16.10
2009,06,04,01,33,16.10
2009,06,04,01,34,16.10
2009,06,04,01,35,16.10
2009,06,04,01,36,16.10
2009,06,04,01,37,16.00
2009,06,04,01,38,15.90
2009,06,04,01,39,15.90
2009,06,04,01,40,15.80
2009,06,04,01,41,15.80
2009,06,04,01,42,15.80
2009,06,04,01,43,15.80
2009,06,04,01,44,15.80
2009,06,04,01,45,15.80
2009,06,04,01,46,15.80
2009,06,04,01,47,15.80
2009,06,04,01,48,15.70
2009,06,04,01,49,15.70
2009,06,04,01,50,15.70
2009,06,04,01,51,15.70
2009,06,04,01,52,15.70
2009,06,04,01,53,15.70
2009,06,04,01,54,15.70
2009,06,04,01,55,15.70
2009,06,04,01,56,15.70
2009,06,04,01,57,15.70
2009,06,04,01,58,15.70
2009,06,04,01,59,15.70
2009,06,04,02,00,15.70
2009,06,04,02,01,15.70
2009,06,04,02,02,15.70
2009,06,04,02,03,15.70
2009,06,04,02,04,15.70
2009,06,04,02,05,15.70
2009,06,04,02,06,15.70
2009,06,04,02,07,15.80
2009,06,04,02,08,15.70
2009,06,04,02,09,15.70
2009,06,04,02,10,15.70
2009,06,04,02,11,15.70
2009,06,04,02,12,15.70
2009,06,04,02,13,15.60
2009,06,04,02,14,15.60
2009,06,04,02,15,15.60
2009,06,04,02,16,15.60
2009,06,04,02,17,15.50
2009,06,04,02,18,15.50
2009,06,04,02,19,15.50
2009,06,04,02,20,15.50
2009,06,04,02,21,15.50
2009,06,04,02,22,15.50
2009,06,04,02,23,15.50
2009,06,04,02,24,15.50
2009,06,04,02,25,15.50
2009,06,04,02,26,15.50
2009,06,04,02,27,15.50
2009,06,04,02,28,15.50
2009,06,04,02,29,15.50
2009,06,04,02,30,15.50
2009,06,04,02,31,15.50
2009,06,04,02,32,15.60
2009,06,04,02,33,15.60
2009,06,04,02,34,15.60
2009,06,04,02,35,15.60
2009,06,04,02,36,15.60
2009,06,04,02,37,15.70
2009,06,04,02,38,15.70
2009,06,04,02,39,15.70
2009,06,04,02,40,15.70
2009,06,04,02,41,15.70
2009,06,04,02,42,15.70
2009,06,04,02,43,15.70
2009,06,04,02,44,15.70
2009,06,04,02,45,15.60
2009,06,04,02,46,15.60
2009,06,04,02,47,15.60
2009,06,04,02,48,15.60
2009,06,04,02,49,15.50
2009,06,04,02,50,15.50
2009,06,04,02,51,15.50
2009,06,04,02,52,15.50
2009,06,04,02,53,15.40
2009,06,04,02,54,15.30
2009,06,04,02,55,15.20
2009,06,04,02,56,15.00
2009,06,04,02,57,14.90
2009,06,04,02,58,14.70
2009,06,04,02,59,14.40
2009,06,04,03,00,14.20
2009,06,04,03,01,14.10
2009,06,04,03,02,14.00
2009,06,04,03,03,13.90
2009,06,04,03,04,13.90
2009,06,04,03,05,13.80
2009,06,04,03,06,13.80
2009,06,04,03,07,13.70
2009,06,04,03,08,13.70
2009,06,04,03,09,13.70
2009,06,04,03,10,13.70
2009,06,04,03,11,13.70
2009,06,04,03,12,13.60
2009,06,04,03,13,13.60
2009,06,04,03,14,13.60
2009,06,04,03,15,13.60
2009,06,04,03,16,13.60
2009,06,04,03,17,13.60
2009,06,04,03,18,13.60
2009,06,04,03,19,13.60
2009,06,04,03,20,13.60
2009,06,04,03,21,13.60
2009,06,04,03,22,13.60
2009,06,04,03,23,13.60
2009,06,04,03,24,13.60
2009,06,04,03,25,13.60
2009,06,04,03,26,13.70
2009,06,04,03,27,13.70
2009,06,04,03,28,13.70
2009,06,04,03,29,13.80
2009,06,04,03,30,13.80
2009,06,04,03,31,13.80
2009,06,04,03,32,13.80
2009,06,04,03,33,13.80
2009,06,04,03,34,13.80
2009,06,04,03,35,13.80
2009,06,04,03,36,13.80
2009,06,04,03,37,13.80
2009,06,04,03,38,13.80
2009,06,04,03,39,13.80
2009,06,04,03,40,13.80
2009,06,04,03,41,13.80
2009,06,04,03,42,13.80
2009,06,04,03,43,13.80
2009,06,04,03,44,13.90
2009,06,04,03,45,13.90
2009,06,04,03,46,13.90
2009,06,04,03,47,13.90
2009,06,04,03,48,13.90
2009,06,04,03,49,13.90
2009,06,04,03,50,13.90
2009,06,04,03,51,14.00
2009,06,04,03,52,14.00
2009,06,04,03,53,14.00
2009,06,04,03,54,14.00
2009,06,04,03,55,14.00
2009,06,04,03,56,14.10
2009,06,04,03,57,14.10
2009,06,04,03,58,14.10
2009,06,04,03,59,14.10
2009,06,04,04,00,14.10
2009,06,04,04,01,14.10
2009,06,04,04,02,14.10
2009,06,04,04,03,14.10
2009,06,04,04,04,14.10
2009,06,04,04,05,14.10
2009,06,04,04,06,14.10
2009,06,04,04,07,14.10
2009,06,04,04,08,14.10
2009,06,04,04,09,14.10
2009,06,04,04,10,14.10
2009,06,04,04,11,14.10
2009,06,04,04,12,14.10
2009,06,04,04,13,14.10
2009,06,04,04,14,14.10
2009,06,04,04,15,14.10
2009,06,04,04,16,14.10
2009,06,04,04,17,14.10
2009,06,04,04,18,14.10
2009,06,04,04,19,14.10
2009,06,04,04,20,14.10
2009,06,04,04,21,14.20
2009,06,04,04,22,14.20
2009,06,04,04,23,14.20
2009,06,04,04,24,14.20
2009,06,04,04,25,14.20
2009,06,04,04,26,14.20
2009,06,04,04,27,14.20
2009,06,04,04,28,14.20
2009,06,04,04,29,14.20
2009,06,04,04,30,14.20
2009,06,04,04,31,14.20
2009,06,04,04,32,14.20
2009,06,04,04,33,14.20
2009,06,04,04,34,14.20
2009,06,04,04,35,14.20
2009,06,04,04,36,14.20
2009,06,04,04,37,14.20
2009,06,04,04,38,14.20
2009,06,04,04,39,14.20
2009,06,04,04,40,14.20
2009,06,04,04,41,14.20
2009,06,04,04,42,14.20
2009,06,04,04,43,14.20
2009,06,04,04,44,14.20
2009,06,04,04,45,14.30
2009,06,04,04,46,14.30
2009,06,04,04,47,14.30
2009,06,04,04,48,14.40
2009,06,04,04,49,14.40
2009,06,04,04,50,14.40
2009,06,04,04,51,14.40
2009,06,04,04,52,14.50
2009,06,04,04,53,14.50
2009,06,04,04,54,14.50
2009,06,04,04,55,14.50
2009,06,04,04,56,14.50
2009,06,04,04,57,14.60
2009,06,04,04,58,14.60
2009,06,04,04,59,14.60
2009,06,04,05,00,14.60
2009,06,04,05,01,14.50
2009,06,04,05,02,14.50
2009,06,04,05,03,14.50
2009,06,04,05,04,14.50
2009,06,04,05,05,14.50
2009,06,04,05,06,14.50
2009,06,04,05,07,14.50
2009,06,04,05,08,14.50
2009,06,04,05,09,14.50
2009,06,04,05,10,14.50
2009,06,04,05,11,14.40
2009,06,04,05,12,14.40
2009,06,04,05,13,14.40
2009,06,04,05,14,14.40
2009,06,04,05,15,14.40
2009,06,04,05,16,14.30
2009,06,04,05,17,14.30
2009,06,04,05,18,14.30
2009,06,04,05,19,14.30
2009,06,04,05,20,14.20
2009,06,04,05,21,14.20
2009,06,04,05,22,14.20
2009,06,04,05,23,14.20
2009,06,04,05,24,14.20
2009,06,04,05,25,14.10
2009,06,04,05,26,14.10
2009,06,04,05,27,14.10
2009,06,04,05,28,14.10
2009,06,04,05,29,14.10
2009,06,04,05,30,14.00
2009,06,04,05,31,14.00
2009,06,04,05,32,14.00
2009,06,04,05,33,14.00
2009,06,04,05,34,14.00
2009,06,04,05,35,14.00
2009,06,04,05,36,14.00
2009,06,04,05,37,14.00
2009,06,04,05,38,14.00
2009,06,04,05,39,14.00
2009,06,04,05,40,14.10
2009,06,04,05,41,14.10
2009,06,04,05,42,14.20
2009,06,04,05,43,14.20
2009,06,04,05,44,14.20
2009,06,04,05,45,14.30
2009,06,04,05,46,14.30
2009,06,04,05,47,14.30
2009,06,04,05,48,14.40
2009,06,04,05,49,14.40
2009,06,04,05,50,14.50
2009,06,04,05,51,14.50
2009,06,04,05,52,14.50
2009,06,04,05,53,14.60
2009,06,04,05,54,14.60
2009,06,04,05,55,14.70
2009,06,04,05,56,14.70
2009,06,04,05,57,14.80
2009,06,04,05,58,14.80
2009,06,04,05,59,14.80
2009,06,04,06,00,14.80
2009,06,04,06,01,14.80
2009,06,04,06,02,14.80
2009,06,04,06,03,14.80
2009,06,04,06,04,14.90
2009,06,04,06,05,14.90
2009,06,04,06,06,15.00
2009,06,04,06,07,15.00
2009,06,04,06,08,15.00
2009,06,04,06,09,15.10
2009,06,04,06,10,15.10
2009,06,04,06,11,15.10
2009,06,04,06,12,15.20
2009,06,04,06,13,15.20
2009,06,04,06,14,15.30
2009,06,04,06,15,15.30
2009,06,04,06,16,15.30
2009,06,04,06,17,15.30
2009,06,04,06,18,15.30
2009,06,04,06,19,15.30
2009,06,04,06,20,15.30
2009,06,04,06,21,15.40
2009,06,04,06,22,15.40
2009,06,04,06,23,15.40
2009,06,04,06,24,15.40
2009,06,04,06,25,15.40
2009,06,04,06,26,15.40
2009,06,04,06,27,15.40
2009,06,04,06,28,15.50
2009,06,04,06,29,15.50
2009,06,04,06,30,15.50
2009,06,04,06,31,15.60
2009,06,04,06,32,15.60
2009,06,04,06,33,15.70
2009,06,04,06,34,15.70
2009,06,04,06,35,15.70
2009,06,04,06,36,15.80
2009,06,04,06,37,15.80
2009,06,04,06,38,15.80
2009,06,04,06,39,15.80
2009,06,04,06,40,15.80
2009,06,04,06,41,15.80
2009,06,04,06,42,15.90
2009,06,04,06,43,15.90
2009,06,04,06,44,15.90
2009,06,04,06,45,16.10
2009,06,04,06,46,16.10
2009,06,04,06,47,16.10
2009,06,04,06,48,16.10
2009,06,04,06,49,16.20
2009,06,04,06,50,16.30
2009,06,04,06,51,16.30
2009,06,04,06,52,16.40
2009,06,04,06,53,16.40
2009,06,04,06,54,16.60
2009,06,04,06,55,16.60
2009,06,04,06,56,16.70
2009,06,04,06,57,16.70
2009,06,04,06,58,16.80
2009,06,04,06,59,16.90
2009,06,04,07,00,16.90
2009,06,04,07,01,17.00
2009,06,04,07,02,17.10
2009,06,04,07,03,17.20
2009,06,04,07,04,17.20
2009,06,04,07,05,17.30
2009,06,04,07,06,17.30
2009,06,04,07,07,17.40
2009,06,04,07,08,17.50
2009,06,04,07,09,17.50
2009,06,04,07,10,17.60
2009,06,04,07,11,17.70
2009,06,04,07,12,17.80
2009,06,04,07,13,17.90
2009,06,04,07,14,18.00
2009,06,04,07,15,18.10
2009,06,04,07,16,18.20
2009,06,04,07,17,18.30
2009,06,04,07,18,18.40
2009,06,04,07,19,18.40
2009,06,04,07,20,18.30
2009,06,04,07,21,18.30
2009,06,04,07,22,18.30
2009,06,04,07,23,18.20
2009,06,04,07,24,18.00
2009,06,04,07,25,17.90
2009,06,04,07,26,17.70
2009,06,04,07,27,17.60
2009,06,04,07,28,17.50
2009,06,04,07,29,17.50
2009,06,04,07,30,17.50
2009,06,04,07,31,17.50
2009,06,04,07,32,17.50
2009,06,04,07,33,17.60
2009,06,04,07,34,17.60
2009,06,04,07,35,17.70
2009,06,04,07,36,17.70
2009,06,04,07,37,17.80
2009,06,04,07,38,17.90
2009,06,04,07,39,18.00
2009,06,04,07,40,18.10
2009,06,04,07,41,18.20
2009,06,04,07,42,18.30
2009,06,04,07,43,18.40
2009,06,04,07,44,18.50
2009,06,04,07,45,18.60
2009,06,04,07,46,18.70
2009,06,04,07,47,18.90
2009,06,04,07,48,18.90
2009,06,04,07,49,19.10
2009,06,04,07,50,19.20
2009,06,04,07,51,19.30
2009,06,04,07,52,19.40
2009,06,04,07,53,19.60
2009,06,04,07,54,19.60
2009,06,04,07,55,19.80
2009,06,04,07,56,19.90
2009,06,04,07,57,19.90
2009,06,04,07,58,20.10
2009,06,04,07,59,20.10
2009,06,04,08,00,20.20
2009,06,04,08,01,20.20
2009,06,04,08,02,20.30
2009,06,04,08,03,20.40
2009,06,04,08,04,20.50
2009,06,04,08,05,20.50
2009,06,04,08,06,20.50
2009,06,04,08,07,20.40
2009,06,04,08,08,20.40
2009,06,04,08,09,20.40
2009,06,04,08,10,20.40
2009,06,04,08,11,20.20
2009,06,04,08,12,20.20
2009,06,04,08,13,20.20
2009,06,04,08,14,20.20
2009,06,04,08,15,20.30
2009,06,04,08,16,20.40
2009,06,04,08,17,20.50
2009,06,04,08,18,20.60
2009,06,04,08,19,20.80
2009,06,04,08,20,21.00
2009,06,04,08,21,21.20
2009,06,04,08,22,21.30
2009,06,04,08,23,21.60
2009,06,04,08,24,21.60
2009,06,04,08,25,21.70
2009,06,04,08,26,21.80
2009,06,04,08,27,22.00
2009,06,04,08,28,22.10
2009,06,04,08,29,22.10
2009,06,04,08,30,22.20
2009,06,04,08,31,22.30
2009,06,04,08,32,22.40
2009,06,04,08,33,22.60
2009,06,04,08,34,22.70
2009,06,04,08,35,22.80
2009,06,04,08,36,22.90
2009,06,04,08,37,23.00
2009,06,04,08,38,23.10
2009,06,04,08,39,23.20
2009,06,04,08,40,23.20
2009,06,04,08,41,23.30
2009,06,04,08,42,23.30
2009,06,04,08,43,23.30
2009,06,04,08,44,23.40
2009,06,04,08,45,23.40
2009,06,04,08,46,23.50
2009,06,04,08,47,23.60
2009,06,04,08,48,23.60
2009,06,04,08,49,23.70
2009,06,04,08,50,23.70
2009,06,04,08,51,23.80
2009,06,04,08,52,23.80
2009,06,04,08,53,23.90
2009,06,04,08,54,23.90
2009,06,04,08,55,24.00
2009,06,04,08,56,24.10
2009,06,04,08,57,24.20
2009,06,04,08,58,24.30
2009,06,04,08,59,24.30
2009,06,04,09,00,24.40
2009,06,04,09,01,24.40
2009,06,04,09,02,24.30
2009,06,04,09,03,24.30
2009,06,04,09,04,24.30
2009,06,04,09,05,24.40
2009,06,04,09,06,24.40
2009,06,04,09,07,24.40
2009,06,04,09,08,24.50
2009,06,04,09,09,24.60
2009,06,04,09,10,24.60
2009,06,04,09,11,24.60
2009,06,04,09,12,24.70
2009,06,04,09,13,24.70
2009,06,04,09,14,24.70
2009,06,04,09,15,24.70
2009,06,04,09,16,24.70
2009,06,04,09,17,24.80
2009,06,04,09,18,24.80
2009,06,04,09,19,24.80
2009,06,04,09,20,24.90
2009,06,04,09,21,25.00
2009,06,04,09,22,25.00
2009,06,04,09,23,25.10
2009,06,04,09,24,25.20
2009,06,04,09,25,25.30
2009,06,04,09,26,25.30
2009,06,04,09,27,25.30
2009,06,04,09,28,25.30
2009,06,04,09,29,25.30
2009,06,04,09,30,25.30
2009,06,04,09,31,25.20
2009,06,04,09,32,25.20
2009,06,04,09,33,25.10
2009,06,04,09,34,25.10
2009,06,04,09,35,25.20
2009,06,04,09,36,25.20
2009,06,04,09,37,25.30
2009,06,04,09,38,25.40
2009,06,04,09,39,25.40
2009,06,04,09,40,25.50
2009,06,04,09,41,25.50
2009,06,04,09,42,25.50
2009,06,04,09,43,25.60
2009,06,04,09,44,25.60
2009,06,04,09,45,25.60
2009,06,04,09,46,25.60
2009,06,04,09,47,25.60
2009,06,04,09,48,25.70
2009,06,04,09,49,25.60
2009,06,04,09,50,25.60
2009,06,04,09,51,25.60
2009,06,04,09,52,25.60
2009,06,04,09,53,25.60
2009,06,04,09,54,25.60
2009,06,04,09,55,25.70
2009,06,04,09,56,25.80
2009,06,04,09,57,25.80
2009,06,04,09,58,25.90
2009,06,04,09,59,25.80
2009,06,04,10,00,25.80
2009,06,04,10,01,25.80
2009,06,04,10,02,25.80
2009,06,04,10,03,25.80
2009,06,04,10,04,25.80
2009,06,04,10,05,25.80
2009,06,04,10,06,25.80
2009,06,04,10,07,25.80
2009,06,04,10,08,25.80
2009,06,04,10,09,25.80
2009,06,04,10,10,25.90
2009,06,04,10,11,25.90
2009,06,04,10,12,25.90
2009,06,04,10,13,25.90
2009,06,04,10,14,25.90
2009,06,04,10,15,25.90
2009,06,04,10,16,25.90
2009,06,04,10,17,25.90
2009,06,04,10,18,25.90
2009,06,04,10,19,25.70
2009,06,04,10,20,25.60
2009,06,04,10,21,25.40
2009,06,04,10,22,25.20
2009,06,04,10,23,24.90
2009,06,04,10,24,24.80
2009,06,04,10,25,24.70
2009,06,04,10,26,24.70
2009,06,04,10,27,24.80
2009,06,04,10,28,24.80
2009,06,04,10,29,24.80
2009,06,04,10,30,24.70
2009,06,04,10,31,24.50
2009,06,04,10,32,24.40
2009,06,04,10,33,24.30
2009,06,04,10,34,24.20
2009,06,04,10,35,24.00
2009,06,04,10,36,23.90
2009,06,04,10,37,23.80
2009,06,04,10,38,23.80
2009,06,04,10,39,23.80
2009,06,04,10,40,23.80
2009,06,04,10,41,23.80
2009,06,04,10,42,23.80
2009,06,04,10,43,23.80
2009,06,04,10,44,23.80
2009,06,04,10,45,23.80
2009,06,04,10,46,23.90
2009,06,04,10,47,24.00
2009,06,04,10,48,24.10
2009,06,04,10,49,24.20
2009,06,04,10,50,24.30
2009,06,04,10,51,24.40
2009,06,04,10,52,24.50
2009,06,04,10,53,24.60
2009,06,04,10,54,24.80
2009,06,04,10,55,24.90
2009,06,04,10,56,25.10
2009,06,04,10,57,25.30
2009,06,04,10,58,25.40
2009,06,04,10,59,25.50
2009,06,04,11,00,25.60
2009,06,04,11,01,25.80
2009,06,04,11,02,25.90
2009,06,04,11,03,26.00
2009,06,04,11,04,26.00
2009,06,04,11,05,26.10
2009,06,04,11,06,26.20
2009,06,04,11,07,26.30
2009,06,04,11,08,26.40
2009,06,04,11,09,26.40
2009,06,04,11,10,26.40
2009,06,04,11,11,26.40
2009,06,04,11,12,26.40
2009,06,04,11,13,26.40
2009,06,04,11,14,26.50
2009,06,04,11,15,26.60
2009,06,04,11,16,26.60
2009,06,04,11,17,26.60
2009,06,04,11,18,26.60
2009,06,04,11,19,26.60
2009,06,04,11,20,26.60
2009,06,04,11,21,26.60
2009,06,04,11,22,26.60
2009,06,04,11,23,26.60
2009,06,04,11,24,26.60
2009,06,04,11,25,26.60
2009,06,04,11,26,26.60
2009,06,04,11,27,26.60
2009,06,04,11,28,26.60
2009,06,04,11,29,26.60
2009,06,04,11,30,26.60
2009,06,04,11,31,26.70
2009,06,04,11,32,26.80
2009,06,04,11,33,26.80
2009,06,04,11,34,26.60
2009,06,04,11,35,26.30
2009,06,04,11,36,26.10
2009,06,04,11,37,25.80
2009,06,04,11,38,25.50
2009,06,04,11,39,25.30
2009,06,04,11,40,25.10
2009,06,04,11,41,24.70
2009,06,04,11,42,24.50
2009,06,04,11,43,24.30
2009,06,04,11,44,24.20
2009,06,04,11,45,24.10
2009,06,04,11,46,24.10
2009,06,04,11,47,24.10
2009,06,04,11,48,24.10
2009,06,04,11,49,24.30
2009,06,04,11,50,24.40
2009,06,04,11,51,24.50
2009,06,04,11,52,24.60
2009,06,04,11,53,24.80
2009,06,04,11,54,24.80
2009,06,04,11,55,24.90
2009,06,04,11,56,24.90
2009,06,04,11,57,24.90
2009,06,04,11,58,25.00
2009,06,04,11,59,25.10
2009,06,04,12,00,25.10
2009,06,04,12,01,25.20
2009,06,04,12,02,25.20
2009,06,04,12,03,25.10
2009,06,04,12,04,25.10
2009,06,04,12,05,24.90
2009,06,04,12,06,24.80
2009,06,04,12,07,24.70
2009,06,04,12,08,24.60
2009,06,04,12,09,24.50
2009,06,04,12,10,24.40
2009,06,04,12,11,24.50
2009,06,04,12,12,24.50
2009,06,04,12,13,24.50
2009,06,04,12,14,24.50
2009,06,04,12,15,24.60
2009,06,04,12,16,24.60
2009,06,04,12,17,24.50
2009,06,04,12,18,24.50
2009,06,04,12,19,24.60
2009,06,04,12,20,24.80
2009,06,04,12,21,24.80
2009,06,04,12,22,24.80
2009,06,04,12,23,24.90
2009,06,04,12,24,24.90
2009,06,04,12,25,25.00
2009,06,04,12,26,25.00
2009,06,04,12,27,25.00
2009,06,04,12,28,25.00
2009,06,04,12,29,25.00
2009,06,04,12,30,25.00
2009,06,04,12,31,24.90
2009,06,04,12,32,24.90
2009,06,04,12,33,24.90
2009,06,04,12,34,25.00
2009,06,04,12,35,25.00
2009,06,04,12,36,24.90
2009,06,04,12,37,24.90
2009,06,04,12,38,24.90
2009,06,04,12,39,24.90
2009,06,04,12,40,24.90
2009,06,04,12,41,25.00
2009,06,04,12,42,24.80
2009,06,04,12,43,24.70
2009,06,04,12,44,24.60
2009,06,04,12,45,24.50
2009,06,04,12,46,24.50
2009,06,04,12,47,24.50
2009,06,04,12,48,24.60
2009,06,04,12,49,24.70
2009,06,04,12,50,24.70
2009,06,04,12,51,24.70
2009,06,04,12,52,24.80
2009,06,04,12,53,24.80
2009,06,04,12,54,24.80
2009,06,04,12,55,24.80
2009,06,04,12,56,24.80
2009,06,04,12,57,24.80
2009,06,04,12,58,24.90
2009,06,04,12,59,24.90
2009,06,04,13,00,25.00
2009,06,04,13,01,25.10
2009,06,04,13,02,25.20
2009,06,04,13,03,25.20
2009,06,04,13,04,25.30
2009,06,04,13,05,25.30
2009,06,04,13,06,25.40
2009,06,04,13,07,25.50
2009,06,04,13,08,25.60
2009,06,04,13,09,25.70
2009,06,04,13,10,25.50
2009,06,04,13,11,25.40
2009,06,04,13,12,25.20
2009,06,04,13,13,25.10
2009,06,04,13,14,25.10
2009,06,04,13,15,25.10
2009,06,04,13,16,25.20
2009,06,04,13,17,25.30
2009,06,04,13,18,25.30
2009,06,04,13,19,25.20
2009,06,04,13,20,25.20
2009,06,04,13,21,25.20
2009,06,04,13,22,25.10
2009,06,04,13,23,25.00
2009,06,04,13,24,24.80
2009,06,04,13,25,24.70
2009,06,04,13,26,24.70
2009,06,04,13,27,24.70
2009,06,04,13,28,24.80
2009,06,04,13,29,25.00
2009,06,04,13,30,25.10
2009,06,04,13,31,25.30
2009,06,04,13,32,25.40
2009,06,04,13,33,25.40
2009,06,04,13,34,25.60
2009,06,04,13,35,25.60
2009,06,04,13,36,25.60
2009,06,04,13,37,25.60
2009,06,04,13,38,25.60
2009,06,04,13,39,25.70
2009,06,04,13,40,25.70
2009,06,04,13,41,25.70
2009,06,04,13,42,25.70
2009,06,04,13,43,25.70
2009,06,04,13,44,25.80
2009,06,04,13,45,25.80
2009,06,04,13,46,25.70
2009,06,04,13,47,25.70
2009,06,04,13,48,25.70
2009,06,04,13,49,25.70
2009,06,04,13,50,25.70
2009,06,04,13,51,25.60
2009,06,04,13,52,25.60
2009,06,04,13,53,25.60
2009,06,04,13,54,25.50
2009,06,04,13,55,25.40
2009,06,04,13,56,25.30
2009,06,04,13,57,25.30
2009,06,04,13,58,25.40
2009,06,04,13,59,25.40
2009,06,04,14,00,25.60
2009,06,04,14,01,25.60
2009,06,04,14,02,25.50
2009,06,04,14,03,25.50
2009,06,04,14,04,25.50
2009,06,04,14,05,25.50
2009,06,04,14,06,25.40
2009,06,04,14,07,25.50
2009,06,04,14,08,25.50
2009,06,04,14,09,25.50
2009,06,04,14,10,25.60
2009,06,04,14,11,25.80
2009,06,04,14,12,26.00
2009,06,04,14,13,26.00
2009,06,04,14,14,26.00
2009,06,04,14,15,26.00
2009,06,04,14,16,26.00
2009,06,04,14,17,26.00
2009,06,04,14,18,25.90
2009,06,04,14,19,25.90
2009,06,04,14,20,25.80
2009,06,04,14,21,25.80
2009,06,04,14,22,25.90
2009,06,04,14,23,25.90
2009,06,04,14,24,25.80
2009,06,04,14,25,25.90
2009,06,04,14,26,26.00
2009,06,04,14,27,26.10
2009,06,04,14,28,26.20
2009,06,04,14,29,26.20
2009,06,04,14,30,26.20
2009,06,04,14,31,26.10
2009,06,04,14,32,26.20
2009,06,04,14,33,26.20
2009,06,04,14,34,26.20
2009,06,04,14,35,26.20
2009,06,04,14,36,26.20
2009,06,04,14,37,26.20
2009,06,04,14,38,26.20
2009,06,04,14,39,26.20
2009,06,04,14,40,26.10
2009,06,04,14,41,26.00
2009,06,04,14,42,26.10
2009,06,04,14,43,26.10
2009,06,04,14,44,26.10
2009,06,04,14,45,26.20
2009,06,04,14,46,26.20
2009,06,04,14,47,26.20
2009,06,04,14,48,26.30
2009,06,04,14,49,26.30
2009,06,04,14,50,26.40
2009,06,04,14,51,26.40
2009,06,04,14,52,26.50
2009,06,04,14,53,26.60
2009,06,04,14,54,26.60
2009,06,04,14,55,26.50
2009,06,04,14,56,26.50
2009,06,04,14,57,26.50
2009,06,04,14,58,26.40
2009,06,04,14,59,26.40
2009,06,04,15,00,26.30
2009,06,04,15,01,26.30
2009,06,04,15,02,26.30
2009,06,04,15,03,26.10
2009,06,04,15,04,26.10
2009,06,04,15,05,26.10
2009,06,04,15,06,26.10
2009,06,04,15,07,26.20
2009,06,04,15,08,26.20
2009,06,04,15,09,26.20
2009,06,04,15,10,26.30
2009,06,04,15,11,26.30
2009,06,04,15,12,26.30
2009,06,04,15,13,26.40
2009,06,04,15,14,26.40
2009,06,04,15,15,26.60
2009,06,04,15,16,26.60
2009,06,04,15,17,26.60
2009,06,04,15,18,26.70
2009,06,04,15,19,26.70
2009,06,04,15,20,26.80
2009,06,04,15,21,26.80
2009,06,04,15,22,26.90
2009,06,04,15,23,27.10
2009,06,04,15,24,27.10
2009,06,04,15,25,27.30
2009,06,04,15,26,27.30
2009,06,04,15,27,27.40
2009,06,04,15,28,27.60
2009,06,04,15,29,27.70
2009,06,04,15,30,27.80
2009,06,04,15,31,27.90
2009,06,04,15,32,28.00
2009,06,04,15,33,28.10
2009,06,04,15,34,28.10
2009,06,04,15,35,28.10
2009,06,04,15,36,28.00
2009,06,04,15,37,28.10
2009,06,04,15,38,28.10
2009,06,04,15,39,28.10
2009,06,04,15,40,28.20
2009,06,04,15,41,28.20
2009,06,04,15,42,28.40
2009,06,04,15,43,28.50
2009,06,04,15,44,28.70
2009,06,04,15,45,28.80
2009,06,04,15,46,28.90
2009,06,04,15,47,28.90
2009,06,04,15,48,28.70
2009,06,04,15,49,28.40
2009,06,04,15,50,28.10
2009,06,04,15,51,27.80
2009,06,04,15,52,27.60
2009,06,04,15,53,27.50
2009,06,04,15,54,27.30
2009,06,04,15,55,27.20
2009,06,04,15,56,27.20
2009,06,04,15,57,27.10
2009,06,04,15,58,27.00
2009,06,04,15,59,26.90
2009,06,04,16,00,26.80
2009,06,04,16,01,26.70
2009,06,04,16,02,26.70
2009,06,04,16,03,26.70
2009,06,04,16,04,26.70
2009,06,04,16,05,26.80
2009,06,04,16,06,26.80
2009,06,04,16,07,26.90
2009,06,04,16,08,27.00
2009,06,04,16,09,27.10
2009,06,04,16,10,27.30
2009,06,04,16,11,27.30
2009,06,04,16,12,27.40
2009,06,04,16,13,27.50
2009,06,04,16,14,27.60
2009,06,04,16,15,27.80
2009,06,04,16,16,28.00
2009,06,04,16,17,28.10
2009,06,04,16,18,28.30
2009,06,04,16,19,28.50
2009,06,04,16,20,28.70
2009,06,04,16,21,28.90
2009,06,04,16,22,29.00
2009,06,04,16,23,29.10
2009,06,04,16,24,29.20
2009,06,04,16,25,29.20
2009,06,04,16,26,29.20
2009,06,04,16,27,29.20
2009,06,04,16,28,29.20
2009,06,04,16,29,29.10
2009,06,04,16,30,29.00
2009,06,04,16,31,28.90
2009,06,04,16,32,28.90
2009,06,04,16,33,28.80
2009,06,04,16,34,28.70
2009,06,04,16,35,28.60
2009,06,04,16,36,28.50
2009,06,04,16,37,28.40
2009,06,04,16,38,28.20
2009,06,04,16,39,28.00
2009,06,04,16,40,27.90
2009,06,04,16,41,27.70
2009,06,04,16,42,27.40
2009,06,04,16,43,27.20
2009,06,04,16,44,26.90
2009,06,04,16,45,26.70
2009,06,04,16,46,26.60
2009,06,04,16,47,26.60
2009,06,04,16,48,26.60
2009,06,04,16,49,26.60
2009,06,04,16,50,26.50
2009,06,04,16,51,26.40
2009,06,04,16,52,26.40
2009,06,04,16,53,26.30
2009,06,04,16,54,26.30
2009,06,04,16,55,26.40
2009,06,04,16,56,26.40
2009,06,04,16,57,26.60
2009,06,04,16,58,26.60
2009,06,04,16,59,26.70
2009,06,04,17,00,26.80
2009,06,04,17,01,26.90
2009,06,04,17,02,27.10
2009,06,04,17,03,27.20
2009,06,04,17,04,27.30
2009,06,04,17,05,27.40
2009,06,04,17,06,27.40
2009,06,04,17,07,27.40
2009,06,04,17,08,27.40
2009,06,04,17,09,27.30
2009,06,04,17,10,27.30
2009,06,04,17,11,27.20
2009,06,04,17,12,27.20
2009,06,04,17,13,27.20
2009,06,04,17,14,27.20
2009,06,04,17,15,27.20
2009,06,04,17,16,27.10
2009,06,04,17,17,27.10
2009,06,04,17,18,27.10
2009,06,04,17,19,27.10